Overview Statistics Trail Chart Weather Telemetry Raw packets
 

This is the latest recevied weather packets stored in our database for station/object KE6YLF. If no packets are shown the sender has not sent any weather packets the latest 10 day(s).

<< 47 48 49 50 51 52 53 >>
Time Temp. Humidity Pressure Rain* Wind** Luminosity Snow
1788365407 32.78° C 49% 1079.5 hPa 0 mm - - -
1788365103 31.67° C 51% 1079.4 hPa 0 mm - - -
1788364802 31.11° C 53% 1079.4 hPa 0 mm - - -
1788364496 31.67° C 54% 1079.2 hPa 0 mm - - -
1788364189 31.11° C 54% 1079.4 hPa 0 mm - - -
1788363885 30.56° C 55% 1079.4 hPa 0 mm - - -
1788363585 30.56° C 57% 1079.4 hPa 0 mm - - -
1788363283 30° C 58% 1079.4 hPa 0 mm - - -
1788362979 30° C 59% 1079.2 hPa 0 mm - - -
1788362675 30.56° C 57% 1079.3 hPa 0 mm - - -
1788362371 30° C 57% 1079.2 hPa 0 mm - - -
1788362067 30° C 57% 1079.3 hPa 0 mm - - -
1788361766 30° C 56% 1079.1 hPa 0 mm - - -
1788361463 30° C 56% 1079.2 hPa 0 mm - - -
1788361162 30° C 57% 1079.1 hPa 0 mm - - -
1788360858 29.44° C 57% 1078.9 hPa 0 mm - - -
1788360552 28.89° C 58% 1079 hPa 0 mm - - -
1788360249 28.89° C 59% 1079.2 hPa 0 mm - - -
1788359948 28.89° C 60% 1079.2 hPa 0 mm - - -
1788359643 28.89° C 60% 1079.1 hPa 0 mm - - -
1788359339 28.89° C 61% 1079 hPa 0 mm - - -
1788359035 28.33° C 61% 1079 hPa 0 mm - - -
1788358730 28.33° C 61% 1079 hPa 0 mm - - -
1788358425 28.33° C 61% 1079 hPa 0 mm - - -
1788358124 27.78° C 62% 1079 hPa 0 mm - - -

* Rain latest hour (hover to see other rain measurements)
** Current wind speed in m/s (hover to see current wind gust speed)